Weather History for Sheridan, WY

Change the Weather History Date:

Sunday, May 19, 2013

  Actual Average Record
Temperature  
Mean Temperature 52 °F 53 °F  
Max Temperature 54 °F 68 °F 94 °F (2009)
Min Temperature 49 °F 39 °F 27 °F (1931)
Degree Days  
Heating Degree Days 13 12  
Month to date heating degree days 217 273  
Since 1 July heating degree days 7309 7374  
Cooling Degree Days 0 0  
Month to date cooling degree days 8 0  
Year to date cooling degree days 8 0  
Growing Degree Days 1 (Base 50)    
Moisture  
Dew Point 48 °F    
Average Humidity 88    
Maximum Humidity 93    
Minimum Humidity 83    
Precipitation  
Precipitation 0.35 in 0.08 in 1.84 in (1938)
Month to date precipitation 0.77 1.45  
Year to date precipitation 5.06 5.13  
Sea Level Pressure  
Sea Level Pressure 29.90 in    
Wind  
Wind Speed 19 mph (NW)    
Max Wind Speed 30 mph    
Max Gust Speed 37 mph    
Visibility 10 miles    
Events Rain    
T = Trace of Precipitation, MM = Missing Value Source: NWS Daily Summary

Daily Weather History Graph

Daily Weather History Graph

Search for Another Location

Airport:

Trip Planner

Search our weather history database for the weather conditions in past years. The results will help you decide how hot, cold, wet, or windy it might be!

Date:

Astronomy

May. 19, 2013 Rise Set
Actual Time 5:35 AM MDT 8:34 PM MDT
Civil Twilight 5:00 AM MDT 9:09 PM MDT
Nautical Twilight 4:16 AM MDT 9:53 PM MDT
Astronomical Twilight 3:23 AM MDT 10:46 PM MDT
Moon 2:27 PM MDT (5/19) 2:15 AM MDT (5/19)
Length of Visible Light 16h 08m
Length of Day
14h 59m
Waxing Gibbous, 66% of the Moon is Illuminated
May 19
Waxing Gibbous
May 24
Full
May 31
Last Quarter
Jun 8
New
Jun 16
First Quarter

Hourly Weather History & Observations

Time (MDT) Temp. Dew Point Humidity Pressure Visibility Wind Dir Wind Speed Gust Speed Precip Events Conditions
12:53 AM 52.0 °F 46.9 °F 83% 29.86 in 10.0 mi WNW 11.5 mph - N/A   Overcast
1:53 AM 51.1 °F 46.9 °F 86% 29.86 in 10.0 mi WNW 13.8 mph - N/A   Overcast
2:53 AM 51.1 °F 46.9 °F 86% 29.84 in 10.0 mi NW 10.4 mph - N/A   Overcast
3:53 AM 51.8 °F 46.4 °F 82% 29.88 in 10.0 mi WNW 11.5 mph - N/A   Overcast
4:53 AM 51.1 °F 48.0 °F 89% 29.84 in 10.0 mi WNW 10.4 mph - 0.01 in   Overcast
5:53 AM 51.8 °F 48.2 °F 88% 29.87 in 10.0 mi WNW 12.7 mph - N/A   Overcast
6:53 AM 50.0 °F 48.0 °F 93% 29.85 in 10.0 mi WNW 13.8 mph - N/A   Overcast
7:27 AM 51.8 °F 48.2 °F 88% 29.87 in 10.0 mi NW 13.8 mph - N/A   Overcast
7:53 AM 51.1 °F 48.0 °F 89% 29.85 in 10.0 mi NW 15.0 mph - N/A   Overcast
8:07 AM 51.8 °F 48.2 °F 88% 29.87 in 10.0 mi NW 11.5 mph - N/A   Overcast
8:53 AM 52.0 °F 48.0 °F 86% 29.85 in 10.0 mi NW 20.7 mph 24.2 mph N/A   Overcast
9:53 AM 53.1 °F 48.0 °F 83% 29.84 in 10.0 mi NW 21.9 mph 33.4 mph N/A   Overcast
10:53 AM 54.0 °F 48.0 °F 80% 29.84 in 10.0 mi NW 21.9 mph 29.9 mph N/A   Overcast
11:00 AM 53.6 °F 48.2 °F 82% 29.87 in 10.0 mi NW 21.9 mph 29.9 mph N/A   Overcast
11:29 AM 51.8 °F 48.2 °F 88% 29.87 in 10.0 mi NW 21.9 mph 31.1 mph 0.02 in Rain Light Rain
11:53 AM 52.0 °F 48.9 °F 89% 29.85 in 10.0 mi NW 21.9 mph 28.8 mph 0.03 in   Overcast
12:41 PM 51.8 °F 48.2 °F 88% 29.87 in 10.0 mi NW 23.0 mph 32.2 mph 0.01 in Rain Light Rain
12:53 PM 51.8 °F 48.2 °F 88% 29.87 in 10.0 mi NW 27.6 mph 35.7 mph N/A Rain Light Rain
1:31 PM 51.8 °F 48.2 °F 88% 29.87 in 10.0 mi WNW 24.2 mph 35.7 mph 0.01 in Rain Light Rain
1:53 PM 51.1 °F 48.0 °F 89% 29.86 in 10.0 mi WNW 27.6 mph 32.2 mph 0.01 in Rain Light Rain
2:20 PM 51.8 °F 48.2 °F 88% 29.88 in 10.0 mi WNW 28.8 mph 33.4 mph 0.02 in Rain Light Rain
2:41 PM 50.0 °F 48.2 °F 94% 29.88 in 10.0 mi NW 23.0 mph 35.7 mph 0.06 in Rain Rain
2:53 PM 50.0 °F 48.0 °F 93% 29.86 in 10.0 mi WNW 24.2 mph 33.4 mph 0.07 in Rain Light Rain
3:53 PM 52.0 °F 48.0 °F 86% 29.87 in 10.0 mi WNW 24.2 mph 33.4 mph 0.02 in   Overcast
4:53 PM 51.1 °F 48.0 °F 89% 29.89 in 10.0 mi NW 21.9 mph 31.1 mph 0.03 in Rain Light Rain
5:02 PM 51.8 °F 48.2 °F 88% 29.90 in 10.0 mi NW 21.9 mph 27.6 mph 0.00 in   Overcast
5:53 PM 51.1 °F 48.0 °F 89% 29.90 in 10.0 mi NW 17.3 mph - 0.03 in Rain Light Rain
6:53 PM 51.1 °F 48.9 °F 92% 29.91 in 10.0 mi WNW 13.8 mph - 0.01 in   Overcast
7:24 PM 51.8 °F 48.2 °F 88% 29.94 in 10.0 mi NW 16.1 mph - N/A   Overcast
7:53 PM 51.1 °F 48.9 °F 92% 29.93 in 10.0 mi WNW 16.1 mph - N/A   Overcast
8:04 PM 51.8 °F 48.2 °F 88% 29.95 in 10.0 mi WNW 17.3 mph - N/A   Overcast
8:53 PM 50.0 °F 48.0 °F 93% 29.94 in 10.0 mi WNW 20.7 mph - 0.00 in   Overcast
9:19 PM 51.8 °F 48.2 °F 88% 29.96 in 10.0 mi NW 19.6 mph - N/A   Overcast
9:32 PM 51.8 °F 48.2 °F 88% 29.96 in 10.0 mi NW 20.7 mph 26.5 mph N/A   Overcast
9:51 PM 51.8 °F 48.2 °F 88% 29.97 in 10.0 mi NW 21.9 mph 26.5 mph 0.00 in Rain Light Rain
9:53 PM 50.0 °F 48.2 °F 94% 29.97 in 10.0 mi NW 20.7 mph 26.5 mph N/A Rain Light Rain
10:01 PM 50.0 °F 48.2 °F 94% 29.97 in 10.0 mi NW 17.3 mph 26.5 mph 0.01 in Rain Light Rain
10:53 PM 50.0 °F 48.0 °F 93% 29.95 in 10.0 mi NW 18.4 mph - 0.02 in Rain Light Rain
11:30 PM 50.0 °F 46.4 °F 87% 29.97 in 10.0 mi NW 21.9 mph 31.1 mph 0.06 in Rain Light Rain
11:40 PM 48.2 °F 46.4 °F 93% 29.97 in 10.0 mi NNW 17.3 mph 26.5 mph 0.07 in Rain Rain
11:51 PM 48.2 °F 46.4 °F 93% 29.97 in 10.0 mi NNW 13.8 mph 21.9 mph 0.09 in Rain Light Rain
11:53 PM 48.9 °F 46.9 °F 93% 29.95 in 10.0 mi NNW 20.7 mph 25.3 mph 0.09 in Rain Light Rain